Location: Sternwarte ZA, Rosenfeld-Brittheim
(48.2889°N, 8.6789°E)
Time: 22:13:12
(UTC+02:00)

ISS - Pass Details

Date: 13 September 2019
Orbit: 411 x 421 km, 51.6° (Epoch: 19 September)

Event Time Altitude Azimuth Distance (km) Brightness Sun altitude
Exits shadow 03:57:43 15° 87° (E) 1,243 -0.9 -27.6°
Drops below altitude 10° 03:58:20 10° 90° (E) 1,490 -0.4 -27.6°
Sets 04:00:28 0° 95° (E) 2,354 0.6 -27.3°
